Date String (YYYY-MM-DD hh:mm:ss) UTC,Instrument flags,absolute air pressure of the measurement (hPa),sample flow rate (lpm),inlet stack bypass flow (lpm),air temperature of the measurement (°C),ambient temperature measured by the external sensor (°C),aerosol sample conditioner tube jacket temperature (°C),OPC LED temperature (°C),internal box temperature (°C),relative humidity of the measurement (%),span deviation,mass concentration of particles derived from Lorenz-Mie calculation of OPC scattering (μg/m³),mass concentration of particles derived from Lorenz-Mie calculation of OPC scattering (μg/m³),mass concentration of particles derived from Lorenz-Mie calculation of OPC scattering (μg/m³)
DateTimeUTC,F1_M11,P_M11,Q1_M11,Q2_M11,T1_M11,T2_M11,T3_M11,T4_M11,T5_M11,U1_M11,ZSPAN_M11,X0_M11,X2_M11,X1_M11
2023-09-05 11:00:00,SystemResetWarning,0829.4,5.00,000.00,028.6,027.5,000.0,036.8,030.3,22.2,0000.0,0004.00,0001.23,0000.78
2023-09-05 11:01:00,SystemResetWarning,0829.6,4.99,000.00,028.6,027.5,000.0,036.9,030.2,22.2,0000.0,0004.11,0001.25,0000.79
2023-09-05 11:02:00,SystemResetWarning,0829.6,5.00,000.00,028.6,027.5,000.0,036.9,030.2,22.1,0000.0,0004.21,0001.25,0000.79
2023-09-05 11:03:00,SystemResetWarning,0829.6,4.99,000.00,028.6,027.5,000.0,036.9,030.2,22.1,0000.0,0004.36,0001.30,0000.80
2023-09-05 11:04:00,SystemResetWarning,0829.5,5.00,000.00,028.7,027.5,000.0,036.9,030.3,22.0,0000.0,0004.43,0001.32,0000.81
2023-09-05 11:05:00,SystemResetWarning,0829.5,5.00,000.00,028.7,027.5,000.0,036.9,030.3,21.8,0000.0,0004.45,0001.36,0000.83
2023-09-05 11:06:00,SystemResetWarning,0829.5,5.00,000.00,028.7,027.5,000.0,036.9,030.4,21.9,0000.0,0003.99,0001.45,0000.85
2023-09-05 11:07:00,SystemResetWarning,0829.6,5.01,000.00,028.7,027.6,000.0,037.0,030.4,21.9,0000.0,0003.96,0001.49,0000.88
2023-09-05 11:08:00,SystemResetWarning,0829.6,5.00,000.00,028.7,027.6,000.0,037.0,030.4,21.9,0000.0,0004.18,0001.54,0000.89
2023-09-05 11:09:00,SystemResetWarning,0829.7,5.00,000.00,028.8,027.6,000.0,037.0,030.4,21.9,0000.0,0004.26,0001.56,0000.90
2023-09-05 11:10:00,SystemResetWarning,0829.7,4.99,000.00,028.8,027.6,000.0,037.0,030.4,21.9,0000.0,0004.84,0001.55,0000.91
2023-09-05 11:11:00,SystemResetWarning,0829.6,5.00,000.00,028.8,027.6,000.0,037.0,030.4,22.1,0000.0,0006.16,0001.54,0000.92
2023-09-05 11:12:00,SystemResetWarning,0829.7,5.00,000.00,028.8,027.6,000.0,037.0,030.4,22.1,0000.0,0005.72,0001.54,0000.91
2023-09-05 11:13:00,SystemResetWarning,0829.7,5.00,000.00,028.8,027.6,000.0,037.1,030.4,22.0,0000.0,0005.36,0001.51,0000.91
2023-09-05 11:14:00,SystemResetWarning,0829.7,5.00,000.00,028.8,027.6,000.0,037.1,030.4,21.9,0000.0,0005.38,0001.49,0000.90
2023-09-05 11:15:00,SystemResetWarning,0829.7,4.99,000.00,028.9,027.7,000.0,037.1,030.5,21.9,0000.0,0005.42,0001.51,0000.90
2023-09-05 11:16:00,SystemResetWarning,0829.7,5.00,000.00,028.9,027.7,000.0,037.1,030.5,21.9,0000.0,0005.31,0001.46,0000.89
2023-09-05 11:17:00,SystemResetWarning,0829.7,4.99,000.00,028.9,027.3,000.0,037.1,030.4,21.8,0000.0,0005.06,0001.37,0000.87
2023-09-05 11:18:00,SystemResetWarning,0829.6,5.00,000.00,028.8,025.3,000.0,037.0,029.8,21.9,0000.0,0005.00,0001.33,0000.86
2023-09-05 11:19:00,SystemResetWarning,0829.7,5.01,000.00,028.6,024.3,000.0,036.9,029.6,22.2,0000.0,0006.14,0001.31,0000.86
2023-09-05 11:20:00,SystemResetWarning,0829.7,5.01,000.00,028.5,024.4,000.0,036.9,029.4,22.5,0000.0,0007.42,0001.37,0000.86
2023-09-05 11:21:00,SystemResetWarning,0829.7,5.00,000.00,028.3,024.7,000.0,036.9,029.4,22.8,0000.0,0007.32,0001.43,0000.87
2023-09-05 11:22:00,SystemResetWarning,0829.8,5.01,000.00,028.3,025.1,000.0,036.9,029.4,22.9,0000.0,0005.90,0001.46,0000.87
2023-09-05 11:23:00,SystemResetWarning,0829.8,5.00,000.00,028.3,025.4,000.0,036.8,029.5,22.9,0000.0,0005.97,0001.48,0000.87
2023-09-05 11:24:00,SystemResetWarning,0829.8,5.00,000.00,028.3,025.7,000.0,036.8,029.6,22.9,0000.0,0005.83,0001.47,0000.87
2023-09-05 11:25:00,SystemResetWarning,0829.8,4.99,000.00,028.3,026.0,000.0,036.8,029.7,22.8,0000.0,0005.99,0001.41,0000.87
2023-09-05 11:26:00,SystemResetWarning,0829.8,5.00,000.00,028.3,026.3,000.0,036.8,029.7,22.7,0000.0,0005.86,0001.38,0000.87
2023-09-05 11:27:00,SystemResetWarning,0829.8,5.01,000.00,028.3,026.5,000.0,036.8,029.8,22.7,0000.0,0005.80,0001.36,0000.87
2023-09-05 11:28:00,SystemResetWarning,0829.8,5.00,000.00,028.3,026.6,000.0,036.8,029.9,22.7,0000.0,0005.91,0001.36,0000.87
2023-09-05 11:29:00,SystemResetWarning,0829.9,5.00,000.00,028.3,026.8,000.0,036.8,029.9,22.7,0000.0,0005.90,0001.37,0000.88
2023-09-05 11:30:00,SystemResetWarning,0829.9,5.00,000.00,028.3,026.9,000.0,036.8,029.9,22.7,0000.0,0005.40,0001.40,0000.88
2023-09-05 11:31:00,SystemResetWarning,0830.0,5.00,000.00,028.4,026.9,000.0,036.8,029.9,22.7,0000.0,0003.81,0001.37,0000.87
2023-09-05 11:32:00,SystemResetWarning,0830.0,5.00,000.00,028.4,027.0,000.0,036.8,029.9,22.7,0000.0,0003.29,0001.29,0000.86
2023-09-05 11:33:00,SystemResetWarning,0830.0,4.99,000.00,028.4,027.1,000.0,036.8,030.0,22.6,0000.0,0003.76,0001.23,0000.85
2023-09-05 11:34:00,SystemResetWarning,0830.0,5.00,000.00,028.4,027.1,000.0,036.8,030.0,22.6,0000.0,0003.87,0001.20,0000.85
2023-09-05 11:35:00,SystemResetWarning,0830.0,5.00,000.00,028.4,027.2,000.0,036.8,030.0,22.6,0000.0,0003.99,0001.21,0000.85
2023-09-05 11:36:00,SystemResetWarning,0830.0,5.00,000.00,028.5,027.2,000.0,036.8,030.1,22.6,0000.0,0003.80,0001.23,0000.85
2023-09-05 11:37:00,SystemResetWarning,0830.0,5.00,000.00,028.5,027.3,000.0,036.8,030.1,22.5,0000.0,0003.78,0001.27,0000.85
2023-09-05 11:38:00,SystemResetWarning,0830.0,5.00,000.00,028.5,027.3,000.0,036.8,030.2,22.4,0000.0,0003.81,0001.29,0000.85
2023-09-05 11:39:00,SystemResetWarning,0830.0,5.01,000.00,028.5,027.3,000.0,036.8,030.2,22.4,0000.0,0003.93,0001.35,0000.86
2023-09-05 11:40:00,SystemResetWarning,0830.0,5.01,000.00,028.5,027.4,000.0,036.8,030.2,22.4,0000.0,0004.02,0001.38,0000.86
2023-09-05 11:41:00,SystemResetWarning,0830.0,5.00,000.00,028.6,027.4,000.0,036.8,030.2,22.3,0000.0,0003.73,0001.35,0000.86
2023-09-05 11:42:00,SystemResetWarning,0830.0,5.00,000.00,028.6,027.4,000.0,036.9,030.3,22.3,0000.0,0003.56,0001.31,0000.86
2023-09-05 11:43:00,SystemResetWarning,0830.1,5.00,000.00,028.6,027.4,000.0,036.9,030.3,22.3,0000.0,0003.70,0001.37,0000.87
2023-09-05 11:44:00,SystemResetWarning,0830.1,5.00,000.00,028.6,027.5,000.0,036.9,030.3,22.3,0000.0,0003.26,0001.41,0000.86
2023-09-05 11:45:00,SystemResetWarning,0830.1,5.00,000.00,028.6,027.5,000.0,036.9,030.3,22.3,0000.0,0002.93,0001.43,0000.86
2023-09-05 11:46:00,SystemResetWarning,0830.1,5.00,000.00,028.7,027.5,000.0,036.9,030.3,22.3,0000.0,0003.06,0001.40,0000.86
2023-09-05 11:47:00,SystemResetWarning,0830.1,5.00,000.00,028.7,027.5,000.0,036.9,030.3,22.4,0000.0,0003.26,0001.42,0000.87
2023-09-05 11:48:00,SystemResetWarning,0830.1,5.00,000.00,028.7,027.5,000.0,037.0,030.3,22.4,0000.0,0003.23,0001.42,0000.87
2023-09-05 11:49:00,SystemResetWarning,0830.2,5.00,000.00,028.7,027.5,000.0,037.0,030.3,22.4,0000.0,0003.83,0001.43,0000.87
2023-09-05 11:50:00,SystemResetWarning,0830.2,5.00,000.00,028.7,027.5,000.0,037.0,030.4,22.3,0000.0,0004.25,0001.41,0000.86
2023-09-05 11:51:00,SystemResetWarning,0830.3,5.00,000.00,028.7,027.5,000.0,037.0,030.4,22.3,0000.0,0004.14,0001.40,0000.86
2023-09-05 11:52:00,SystemResetWarning,0830.3,5.00,000.00,028.8,027.5,000.0,037.0,030.4,22.3,0000.0,0004.20,0001.43,0000.87
2023-09-05 11:53:00,SystemResetWarning,0830.3,5.00,000.00,028.8,027.5,000.0,037.0,030.4,22.4,0000.0,0005.76,0001.42,0000.88
2023-09-05 11:54:00,SystemResetWarning,0830.3,4.99,000.00,028.8,027.6,000.0,037.0,030.4,22.3,0000.0,0005.96,0001.40,0000.87
2023-09-05 11:55:00,SystemResetWarning,0830.3,4.99,000.00,028.8,027.6,000.0,037.1,030.4,22.3,0000.0,0005.95,0001.40,0000.87
2023-09-05 11:56:00,SystemResetWarning,0830.3,5.00,000.00,028.8,027.6,000.0,037.1,030.4,22.3,0000.0,0006.12,0001.43,0000.87
2023-09-05 11:57:00,SystemResetWarning,0830.4,5.00,000.00,028.8,027.6,000.0,037.1,030.5,22.2,0000.0,0006.65,0001.45,0000.87
2023-09-05 11:58:00,SystemResetWarning,0830.4,5.00,000.00,028.8,027.6,000.0,037.1,030.4,22.2,0000.0,0006.70,0001.42,0000.87
2023-09-05 11:59:00,SystemResetWarning,0830.4,5.00,000.00,028.8,027.6,000.0,037.1,030.5,22.2,0000.0,0006.61,0001.39,0000.86
